Back to catalog

STARLINK-11380

AliveCommunicationsVLEO
NORAD 62099·PAYLOAD·🇺🇸 United States

Launched Nov 25, 2024 from Cape Canaveral Space Force Station

Loading…

Next Passes (next 24 hours)

TLE

FreshSource: CelesTrak SupGP

Epoch: Sep 14, 2026, 14:17 UTC

1 62099C 24220M   26257.59562500  .00065169  00000+0  50646-3 0  2577
2 62099  43.0005 343.9653 0001701 256.3117 267.3681 15.70792099    10

Track STARLINK-11380 in real time with AllMySat

Download on the App Store